Regional Weather Roundup
Issued by NWS Raleigh/Durham, NC

Home | Current Version | Previous Version | Text Only | Print | Product List | Glossary On
Versions: 1 2 3 4 5 6 7 8 9 10 11 12 13 14 15 16 17 18 19 20 21 22 23 24 25 26 27
000
ASUS42 KRAH 262010
RWRRAH
NORTH CAROLINA WEATHER ROUNDUP
NATIONAL WEATHER SERVICE RALEIGH NC
400 PM EDT THU MAY 26 2016

NOTE: "FAIR" INDICATES FEW OR NO CLOUDS BELOW 12,000 FEET WITH NO
SIGNIFICANT WEATHER AND/OR OBSTRUCTIONS TO VISIBILITY.

NCZ001-053-055-056-065-067-262100-
WESTERN NORTH CAROLINA

CITY           SKY/WX    TMP DP  RH WIND       PRES   REMARKS
ASHEVILLE      CLOUDY    70  59  68 CALM      30.22R
JEFFERSON      PTSUNNY   74  56  52 W8        30.23F
MORGANTON      CLOUDY    77  62  60 N8        30.19R
HICKORY        FAIR      84  58  40 VRB3      30.12F
RUTHERFORDTON  PTSUNNY   83  60  45 CALM      30.14S
MOUNT AIRY     PTSUNNY   82  65  57 SW5       30.15F
BOONE          FAIR      74  58  56 CALM      30.23F
$$

NCZ021-022-025-041-071-084-088-262100-
CENTRAL NORTH CAROLINA

CITY           SKY/WX    TMP DP  RH WIND       PRES   REMARKS
CHARLOTTE      FAIR      85  62  46 SW8       30.12F
GREENSBORO     FAIR      85  61  44 SW8       30.11F
WINSTON-SALEM  FAIR      84  58  40 VRB3      30.12F
RALEIGH-DURHAM PTSUNNY   88  63  43 SW10      30.11F
FORT BRAGG     FAIR      87  60  40 SW7       30.11F
FAYETTEVILLE   FAIR      88  59  37 SW10      30.11F
BURLINGTON     FAIR      86  61  42 S7        30.11F
LAURINBURG     CLOUDY    86  61  42 SW9       30.13F
$$

NCZ011-015-027-028-043-044-047-080-103-262100-
NORTHEASTERN NORTH CAROLINA

CITY           SKY/WX    TMP DP  RH WIND       PRES   REMARKS
ROCKY MT-WILSO FAIR      86  60  41 SW5       30.10F
GREENVILLE     FAIR      90  61  37 W8        30.13S
WASHINGTON     FAIR      88  61  40 SW5       30.12S
ELIZABETH CITY FAIR      87  58  37 S12       30.11S
MANTEO         NOT AVBL
CAPE HATTERAS  FAIR      78  68  71 SW12      30.17S
$$

NCZ078-087-090-091-093-098-101-262100-
SOUTHEASTERN NORTH CAROLINA

CITY           SKY/WX    TMP DP  RH WIND       PRES   REMARKS
LUMBERTON      FAIR      89  62  40 S6        30.12F
GOLDSBORO      FAIR      87  60  40 SW8       30.10F
KINSTON        FAIR      86  61  42 S7        30.13
KENANSVILLE    FAIR      86  60  41 CALM      30.13F
NEW BERN       PTSUNNY   82  64  54 S13       30.14F
CHERRY POINT   FAIR      82  63  52 S14       30.16F
BEAUFORT       FAIR      78  67  68 S15       30.17S
JACKSONVILLE   FAIR      82  64  54 S13       30.14F
WILMINGTON     FAIR      83  63  50 S12       30.15F
$$





USA.gov is the U.S. government's official web portal to all federal, state and local government web resources and services.